• în Republica Moldova
  • Lista ţărilor
  • Pe 7 zile
  • Temperatura apei
  • Hartă satelitară
  • Meteo pe hartă
  • Widget-uri
  • user-avatar
    Intrare

    Meteo pe oră la Djelfa

    Astăzi, 27 Aprilie, Joi

    Timp Temperatura Precipitaţii Vânt Presiune Umiditate
    00:00 +19°C° 0,4 mm 3 m/s 661 mmHg 43%
    01:00 +18°C° 0 mm 3 m/s 660 mmHg 45%
    02:00 +18°C° 0 mm 3 m/s 660 mmHg 48%
    03:00 +17°C° 0 mm 2 m/s 660 mmHg 50%
    04:00 +17°C° 0 mm 2 m/s 660 mmHg 53%
    05:00 +16°C° 0 mm 2 m/s 660 mmHg 57%
    06:00 +16°C° 0 mm 1 m/s 660 mmHg 60%
    07:00 +18°C° 0 mm 2 m/s 661 mmHg 50%
    08:00 +20°C° 0 mm 3 m/s 661 mmHg 41%
    09:00 +22°C° 0 mm 4 m/s 662 mmHg 31%
    10:00 +25°C° 0 mm 5 m/s 662 mmHg 27%
    11:00 +26°C° 0 mm 6 m/s 662 mmHg 23%
    12:00 +28°C° 0 mm 6 m/s 662 mmHg 19%
    13:00 +28°C° 0 mm 7 m/s 662 mmHg 17%
    14:00 +29°C° 0 mm 7 m/s 661 mmHg 14%
    15:00 +30°C° 0 mm 7 m/s 661 mmHg 12%
    16:00 +28°C° 0 mm 7 m/s 660 mmHg 16%
    17:00 +27°C° 0 mm 7 m/s 660 mmHg 21%
    18:00 +24°C° 0 mm 7 m/s 660 mmHg 25%
    19:00 +22°C° 0 mm 7 m/s 660 mmHg 34%
    20:00 +20°C° 0 mm 7 m/s 660 mmHg 44%
    21:00 +17°C° 0 mm 7 m/s 661 mmHg 53%
    22:00 +17°C° 0 mm 6 m/s 661 mmHg 58%
    23:00 +16°C° 0 mm 6 m/s 661 mmHg 62%

    Mâine, 28 Aprilie, Vineri

    Timp Temperatura Precipitaţii Vânt Presiune Umiditate
    00:00 +15°C° 0 mm 5 m/s 661 mmHg 66%
    01:00 +14°C° 0 mm 5 m/s 660 mmHg 69%
    02:00 +14°C° 0 mm 4 m/s 660 mmHg 72%
    03:00 +13°C° 0 mm 3 m/s 660 mmHg 75%
    04:00 +13°C° 0 mm 3 m/s 660 mmHg 76%
    05:00 +12°C° 0 mm 3 m/s 660 mmHg 77%
    06:00 +12°C° 0 mm 3 m/s 660 mmHg 79%
    07:00 +14°C° 0 mm 3 m/s 661 mmHg 69%
    08:00 +17°C° 0 mm 3 m/s 661 mmHg 60%
    09:00 +18°C° 0 mm 3 m/s 662 mmHg 51%
    10:00 +20°C° 0 mm 3 m/s 662 mmHg 46%
    11:00 +21°C° 0 mm 2 m/s 662 mmHg 40%
    12:00 +24°C° 0 mm 2 m/s 662 mmHg 35%
    13:00 +24°C° 0 mm 2 m/s 662 mmHg 33%
    14:00 +25°C° 0 mm 3 m/s 661 mmHg 30%
    15:00 +26°C° 0 mm 3 m/s 661 mmHg 28%
    16:00 +25°C° 0 mm 3 m/s 661 mmHg 31%
    17:00 +23°C° 0 mm 4 m/s 661 mmHg 33%
    18:00 +23°C° 0 mm 4 m/s 660 mmHg 36%
    19:00 +21°C° 0,1 mm 5 m/s 660 mmHg 44%
    20:00 +19°C° 0,1 mm 5 m/s 661 mmHg 52%
    21:00 +17°C° 0,1 mm 6 m/s 661 mmHg 61%
    22:00 +16°C° 0,4 mm 5 m/s 661 mmHg 66%
    23:00 +15°C° 0,4 mm 4 m/s 661 mmHg 72%

    Poimâine, 29 Aprilie, Sâmbătă

    Timp Temperatura Precipitaţii Vânt Presiune Umiditate
    00:00 +14°C° 0,4 mm 3 m/s 661 mmHg 77%
    01:00 +14°C° 0,4 mm 3 m/s 660 mmHg 77%
    02:00 +15°C° 0,4 mm 2 m/s 660 mmHg 78%
    03:00 +15°C° 0,4 mm 2 m/s 660 mmHg 78%
    04:00 +14°C° 1 mm 2 m/s 660 mmHg 79%
    05:00 +14°C° 1 mm 2 m/s 660 mmHg 80%
    06:00 +13°C° 1 mm 3 m/s 661 mmHg 81%
    07:00 +14°C° 0 mm 3 m/s 661 mmHg 73%
    08:00 +17°C° 0 mm 2 m/s 661 mmHg 64%
    09:00 +18°C° 0 mm 2 m/s 662 mmHg 56%
    10:00 +19°C° 0 mm 2 m/s 662 mmHg 50%
    11:00 +20°C° 0 mm 3 m/s 662 mmHg 44%
    12:00 +21°C° 0 mm 3 m/s 662 mmHg 39%
    13:00 +22°C° 0,1 mm 3 m/s 662 mmHg 36%
    14:00 +23°C° 0,1 mm 4 m/s 662 mmHg 33%
    15:00 +23°C° 0,1 mm 5 m/s 661 mmHg 30%
    16:00 +23°C° 0 mm 4 m/s 661 mmHg 32%
    17:00 +22°C° 0 mm 4 m/s 661 mmHg 34%
    18:00 +21°C° 0 mm 4 m/s 661 mmHg 37%
    19:00 +20°C° 0 mm 4 m/s 661 mmHg 42%
    20:00 +19°C° 0 mm 3 m/s 662 mmHg 47%
    21:00 +18°C° 0 mm 3 m/s 662 mmHg 52%
    22:00 +18°C° 0,1 mm 3 m/s 662 mmHg 55%
    23:00 +17°C° 0,1 mm 2 m/s 662 mmHg 58%

    30 Aprilie, Duminică

    Timp Temperatura Precipitaţii Vânt Presiune Umiditate
    00:00 +16°C° 0,1 mm 1 m/s 661 mmHg 61%
    01:00 +16°C° 0,1 mm 2 m/s 661 mmHg 63%
    02:00 +16°C° 0,1 mm 2 m/s 661 mmHg 64%
    03:00 +16°C° 0,1 mm 2 m/s 661 mmHg 65%
    04:00 +15°C° 0,7 mm 2 m/s 661 mmHg 68%
    05:00 +15°C° 0,7 mm 2 m/s 661 mmHg 71%
    06:00 +15°C° 0,7 mm 2 m/s 662 mmHg 74%
    07:00 +16°C° 0,1 mm 3 m/s 662 mmHg 68%
    08:00 +17°C° 0,1 mm 3 m/s 663 mmHg 61%
    09:00 +19°C° 0,1 mm 4 m/s 663 mmHg 55%
    10:00 +20°C° 0,1 mm 4 m/s 663 mmHg 50%
    11:00 +21°C° 0,1 mm 4 m/s 663 mmHg 46%
    12:00 +22°C° 0,1 mm 4 m/s 663 mmHg 41%
    13:00 +22°C° 0,5 mm 4 m/s 662 mmHg 40%
    14:00 +22°C° 0,5 mm 4 m/s 662 mmHg 38%
    15:00 +24°C° 0,5 mm 3 m/s 661 mmHg 37%
    16:00 +22°C° 0,2 mm 3 m/s 661 mmHg 38%
    17:00 +22°C° 0,2 mm 3 m/s 662 mmHg 39%
    18:00 +23°C° 0,2 mm 2 m/s 662 mmHg 40%
    19:00 +21°C° 0,1 mm 3 m/s 662 mmHg 45%
    20:00 +20°C° 0,1 mm 3 m/s 662 mmHg 50%
    21:00 +18°C° 0,1 mm 4 m/s 663 mmHg 55%
    22:00 +18°C° 0,1 mm 4 m/s 663 mmHg 60%
    23:00 +16°C° 0,1 mm 5 m/s 663 mmHg 65%

    1 Mai, Luni

    Timp Temperatura Precipitaţii Vânt Presiune Umiditate
    00:00 +15°C° 0,1 mm 5 m/s 663 mmHg 70%
    01:00 +14°C° 0 mm 6 m/s 663 mmHg 71%
    02:00 +14°C° 0 mm 6 m/s 663 mmHg 72%
    03:00 +12°C° 0 mm 7 m/s 663 mmHg 72%
    04:00 +11°C° 0 mm 7 m/s 663 mmHg 72%
    05:00 +11°C° 0 mm 7 m/s 663 mmHg 72%
    06:00 +10°C° 0 mm 8 m/s 663 mmHg 71%
    07:00 +11°C° 0 mm 8 m/s 663 mmHg 67%
    08:00 +12°C° 0 mm 8 m/s 664 mmHg 62%
    09:00 +13°C° 0 mm 8 m/s 665 mmHg 58%
    10:00 +15°C° 0 mm 8 m/s 665 mmHg 54%
    11:00 +16°C° 0 mm 8 m/s 665 mmHg 51%
    12:00 +16°C° 0 mm 8 m/s 665 mmHg 47%
    13:00 +17°C° 0 mm 8 m/s 665 mmHg 45%
    14:00 +17°C° 0 mm 8 m/s 665 mmHg 43%
    15:00 +17°C° 0 mm 8 m/s 664 mmHg 41%
    16:00 +16°C° 0 mm 7 m/s 664 mmHg 44%
    17:00 +16°C° 0 mm 7 m/s 665 mmHg 46%
    18:00 +15°C° 0 mm 7 m/s 665 mmHg 49%
    19:00 +14°C° 0 mm 6 m/s 665 mmHg 53%
    20:00 +13°C° 0 mm 5 m/s 665 mmHg 56%
    21:00 +12°C° 0 mm 5 m/s 666 mmHg 60%
    22:00 +10°C° 0 mm 5 m/s 666 mmHg 63%
    23:00 +11°C° 0 mm 4 m/s 665 mmHg 67%

    2 Mai, Marţi

    Timp Temperatura Precipitaţii Vânt Presiune Umiditate
    00:00 +10°C° 0 mm 4 m/s 665 mmHg 70%
    01:00 +10°C° 0 mm 4 m/s 665 mmHg 71%
    02:00 +8°C° 0 mm 4 m/s 664 mmHg 73%
    03:00 +7°C° 0 mm 4 m/s 664 mmHg 74%
    04:00 +7°C° 0 mm 4 m/s 664 mmHg 70%
    05:00 +7°C° 0 mm 4 m/s 665 mmHg 66%
    06:00 +7°C° 0 mm 4 m/s 665 mmHg 62%
    07:00 +8°C° 0 mm 4 m/s 665 mmHg 51%
    08:00 +11°C° 0 mm 4 m/s 666 mmHg 41%
    09:00 +13°C° 0 mm 5 m/s 666 mmHg 30%
    10:00 +14°C° 0 mm 4 m/s 666 mmHg 28%
    11:00 +16°C° 0 mm 3 m/s 666 mmHg 27%
    12:00 +17°C° 0 mm 3 m/s 666 mmHg 25%
    13:00 +18°C° 0 mm 2 m/s 666 mmHg 25%
    14:00 +19°C° 0 mm 2 m/s 665 mmHg 24%
    15:00 +19°C° 0 mm 2 m/s 665 mmHg 23%
    16:00 +19°C° 0 mm 2 m/s 665 mmHg 25%
    17:00 +19°C° 0 mm 2 m/s 665 mmHg 27%
    18:00 +18°C° 0 mm 3 m/s 665 mmHg 28%
    19:00 +17°C° 0 mm 3 m/s 665 mmHg 34%
    20:00 +16°C° 0 mm 3 m/s 665 mmHg 40%
    21:00 +14°C° 0 mm 3 m/s 665 mmHg 45%
    22:00 +14°C° 0 mm 3 m/s 665 mmHg 53%
    23:00 +13°C° 0 mm 4 m/s 665 mmHg 60%
    Arată mai mult